Rangeley, Maine, United States (04970)
Lat: 44.97N, Lon: 70.64W
Wx Zone: MEZ008
Local Info
Past Weather Observations for Today

NOTE: This archive is for the closest National Weather Service station to Rangeley. Information may differ from the station used for current weather conditions.

Click here for Long-term Archive

Time Weather Temperature Dewpoint Humidity Pressure Winds Precip Visibility
17:05
Overcast
48°F / 9°C 39°F / 4°C 71% 29.89 in
(1012 mb)
NW 6.9 mph
(NW 11 kph)
- 10SM
16:52
Overcast
48°F / 9°C 39°F / 4°C 71% 29.89 in
(1012 mb)
NW 8.1 mph
(NW 13 kph)
- 10SM
15:52
Overcast
52°F / 11°C 39°F / 4°C 62% 29.83 in
(1010 mb)
WNW 9.2 mph
(WNW 15 kph)
- 10SM
14:52
Overcast
52°F / 11°C 43°F / 6°C 72% 29.8 in
(1009 mb)
W 9.2 mph
(W 15 kph)
- 10SM
14:30
Overcast
52°F / 11°C 43°F / 6°C 72% 29.8 in
(1009 mb)
W 9.2 mph
(W 15 kph)
- 10SM
13:52
Overcast
52°F / 11°C 43°F / 6°C 72% 29.8 in
(1009 mb)
WNW 9.2 mph
(WNW 15 kph)
- 10SM
12:52
Overcast
54°F / 12°C 45°F / 7°C 72% 29.77 in
(1008 mb)
WNW 13.8 mph
(WNW 22 kph)
0.00 in
(0.00 mm)
10SM
11:52
Overcast
54°F / 12°C 43°F / 6°C 67% 29.74 in
(1007 mb)
NW 15 mph
(NW 24 kph)
- 10SM
11:43
Overcast
54°F / 12°C 45°F / 7°C 72% 29.74 in
(1007 mb)
WNW 9.2 mph
(WNW 15 kph)
- 10SM
11:20
Overcast
54°F / 12°C 43°F / 6°C 67% 29.71 in
(1006 mb)
W 11.5 mph
(W 19 kph)
- 10SM
11:11
Overcast
54°F / 12°C 43°F / 6°C 67% 29.71 in
(1006 mb)
W 9.2 mph
(W 15 kph)
- 10SM
11:01
Overcast
54°F / 12°C 43°F / 6°C 67% 29.71 in
(1006 mb)
WNW 10.4 mph
(WNW 17 kph)
- 10SM
10:52
Overcast
54°F / 12°C 45°F / 7°C 72% 29.71 in
(1006 mb)
W 9.2 mph
(W 15 kph)
- 10SM
10:05
Overcast
55°F / 13°C 46°F / 8°C 72% 29.71 in
(1006 mb)
WNW 10.4 mph
(WNW 17 kph)
- 10SM
09:52
Overcast
54°F / 12°C 48°F / 9°C 82% 29.71 in
(1006 mb)
W 11.5 mph
(W 19 kph)
0.01 in
(0.25 mm)
10SM
09:43
Overcast
Light Rain
54°F / 12°C 52°F / 11°C 94% 29.68 in
(1005 mb)
Variable 6.9 mph
(Variable 11 kph)
0.01 in
(0.25 mm)
7SM
09:32
Overcast
Light Rain
54°F / 12°C 50°F / 10°C 88% 29.68 in
(1005 mb)
Variable 4.6 mph
(Variable 7 kph)
0.00 in
(0.00 mm)
2 1/2SM
08:52
Overcast
55°F / 13°C 48°F / 9°C 77% 29.65 in
(1004 mb)
Variable 5.8 mph
(Variable 9 kph)
- 10SM
07:52
Partly Cloudy
57°F / 14°C 54°F / 12°C 88% 29.59 in
(1002 mb)
Variable 6.9 mph
(Variable 11 kph)
0.05 in
(1.27 mm)
10SM
07:23
Overcast
Light Rain
55°F / 13°C 54°F / 12°C 94% 29.59 in
(1002 mb)
WNW 9.2 mph
(WNW 15 kph)
0.05 in
(1.27 mm)
3SM
07:16
Overcast
Heavy Rain
57°F / 14°C 54°F / 12°C 88% 29.59 in
(1002 mb)
WNW 10.4 mph
(WNW 17 kph)
0.05 in
(1.27 mm)
1 3/4SM
06:52
Mostly Cloudy
61°F / 16°C 57°F / 14°C 88% 29.56 in
(1001 mb)
SW 6.9 mph
(SW 11 kph)
- 10SM
06:10
Partly Cloudy
Fog And Mist
54°F / 12°C 54°F / 12°C 100% 29.56 in
(1001 mb)
Calm - 3SM
06:03
Partly Cloudy
Fog And Mist
55°F / 13°C 55°F / 13°C 100% 29.56 in
(1001 mb)
Calm - 1 1/2SM
05:52
Mostly Cloudy
Fog And Mist
54°F / 12°C 54°F / 12°C 100% 29.56 in
(1001 mb)
Variable 3.5 mph
(Variable 6 kph)
- 1 1/4SM
05:46
Mostly Cloudy
Fog And Mist
55°F / 13°C 55°F / 13°C 100% 29.56 in
(1001 mb)
Variable 3.5 mph
(Variable 6 kph)
- 1 1/2SM
05:17
Overcast
Fog And Mist
55°F / 13°C 55°F / 13°C 100% 29.53 in
(1000 mb)
Calm - 3/4SM
05:08
Mostly Cloudy
Fog And Mist
55°F / 13°C 55°F / 13°C 100% 29.53 in
(1000 mb)
Calm - 1 3/4SM
04:52
Mostly Cloudy
Fog And Mist
57°F / 14°C 55°F / 13°C 94% 29.53 in
(1000 mb)
ESE 3.5 mph
(ESE 6 kph)
0.00 in
(0.00 mm)
5SM
04:41
Partly Cloudy
Fog And Mist
57°F / 14°C 55°F / 13°C 94% 29.53 in
(1000 mb)
Calm 0.00 in
(0.00 mm)
4SM
03:52
Overcast
Light Rain
57°F / 14°C 57°F / 14°C 100% 29.53 in
(1000 mb)
Calm 0.01 in
(0.25 mm)
7SM
02:52
Overcast
59°F / 15°C 57°F / 14°C 94% 29.53 in
(1000 mb)
Calm 0.01 in
(0.25 mm)
10SM
01:52
Overcast
Light Rain
59°F / 15°C 57°F / 14°C 94% 29.53 in
(1000 mb)
Variable 5.8 mph
(Variable 9 kph)
0.06 in
(1.52 mm)
8SM
01:48
Overcast
Light Rain
59°F / 15°C 57°F / 14°C 94% 29.53 in
(1000 mb)
Variable 3.5 mph
(Variable 6 kph)
0.06 in
(1.52 mm)
7SM
01:34
Overcast
Rain
59°F / 15°C 59°F / 15°C 100% 29.53 in
(1000 mb)
Variable 5.8 mph
(Variable 9 kph)
0.05 in
(1.27 mm)
2SM
01:21
Overcast
Light Rain
61°F / 16°C 61°F / 16°C 100% 29.53 in
(1000 mb)
NW 9.2 mph
(NW 15 kph)
0.00 in
(0.00 mm)
3SM
01:18
Overcast
Light Rain
61°F / 16°C 59°F / 15°C 94% 29.53 in
(1000 mb)
NW 8.1 mph
(NW 13 kph)
0.00 in
(0.00 mm)
2SM
01:15
Overcast
Light Rain
59°F / 15°C 57°F / 14°C 94% 29.53 in
(1000 mb)
NW 9.2 mph
(NW 15 kph)
0.00 in
(0.00 mm)
1SM
00:59
Overcast
Fog
57°F / 14°C 57°F / 14°C 100% 29.5 in
(999 mb)
Calm - 1/2SM
00:52
Overcast
Fog
57°F / 14°C 57°F / 14°C 100% 29.5 in
(999 mb)
Calm - 1/4SM
00:32
Obscured
Fog
57°F / 14°C 55°F / 13°C 94% 29.5 in
(999 mb)
Calm - 1/2SM
00:05
Obscured
Fog
57°F / 14°C 57°F / 14°C 100% 29.53 in
(1000 mb)
Calm - 1/4SM
Time Weather Temperature Dewpoint Humidity Pressure Winds Precip Visibility


Weather for websites

WeatherForYou.com, LLC is not responsible for any damages or problems caused by this service. Current weather conditions are obtained from the closest station including government and personal stations which may have varying degrees of accuracy. Weather forecasts are derived from the NOAA NDFD. Like all things, this site belongs to Jesus Christ... He just trusts me to maintain it. If you have any questions or comments email webmaster@weatherforyou.com

Copyright © 2014, WeatherForYou.com LLC. All rights reserved.